カタログに戻る

USA 56

運用中軍事PO
NORAD 20560·PAYLOAD·🇺🇸 United States

打ち上げ Apr 11, 1990 から Vandenberg Space Force Base

Loading…

次のパス (今後24時間)

TLE

最新Source: Space-Track

元期: Sep 14, 2026, 17:42 UTC

1 20560U 90031A   26257.73768413  .00000649  00000-0  85679-4 0  9995
2 20560  89.8560 259.4728 0058693 310.2718  49.3380 14.77791322125920

AllMySatでUSA 56をリアルタイム追跡

Download on the App Store